Location: The Saddle
(36.8333°N, 80.3417°W)
Time: 14:07:37
(UTC-04:00)

Courier 1B - Pass Details

Date: 21 September 2024
Orbit: 962 x 1208 km, 28.3° (Epoch: 06 October)

Event Time Altitude Azimuth Distance (km) Brightness Sun altitude
Rises 18:31:16 0° 262° (W) 3,928 13.2 8.7°
Reaches altitude 10° 18:35:05 10° 244° (WSW) 3,014 11.7 7.9°
Maximum altitude 18:39:36 17° 206° (SSW) 2,560 10.2 7.0°
Drops below altitude 10° 18:44:15 10° 168° (SSE) 3,098 10.1 6.1°
Sets 18:48:16 0° 150° (SSE) 4,083 10.5 5.3°
